RYR4MP LEGE-EPKK

Flight info

Callsign RYR4MP
Flight time 2h 12m
Altitude 28000
Route BGR L110 DIBER/N0455F360 DCT NETUP/N0452F380 DCT STP DCT RAPED DCT PIGOS DCT EKSID DCT NOSTA DCT NOPMU DCT LAGEN DCT ROBAS DCT NOBMI DCT MALUG/N0452F370 DCT LEDVA DCT NETIR
Aircraft B738/M-SDE2E3FGHIRWXY/LB1

Departure

Time 2026-04-26 17:46
Airport Girona-Costa Brava Airport (LEGE)

Arrival

Time 2026-04-26 19:58
Airport Kraków John Paul II International Airport (EPKK)
Time Latitude Longitude Altitude Speed Heading
2026-04-26 17:16 41.89895 2.76495 420 ft 0 kts 105°
2026-04-26 17:32 41.89898 2.76481 409 ft 4 kts 107°
2026-04-26 17:32 41.89900 2.76452 412 ft 3 kts 66°
2026-04-26 17:32 41.89887 2.76422 414 ft 4 kts 47°
2026-04-26 17:32 41.89866 2.76400 412 ft 4 kts 20°
2026-04-26 17:33 41.89840 2.76392 411 ft 4 kts
2026-04-26 17:33 41.89828 2.76389 413 ft 1 kts 16°
2026-04-26 17:35 41.89831 2.76390 413 ft 2 kts 12°
2026-04-26 17:36 41.89864 2.76388 411 ft 7 kts 342°
2026-04-26 17:36 41.89889 2.76339 422 ft 7 kts 283°
2026-04-26 17:36 41.89903 2.76277 422 ft 7 kts 287°
2026-04-26 17:36 41.89927 2.76227 417 ft 7 kts 340°
2026-04-26 17:37 41.89975 2.76243 429 ft 9 kts 17°
2026-04-26 17:37 41.90067 2.76276 426 ft 16 kts 16°
2026-04-26 17:37 41.90182 2.76320 429 ft 17 kts 15°
2026-04-26 17:38 41.90405 2.76404 433 ft 16 kts 15°
2026-04-26 17:38 41.90514 2.76445 432 ft 17 kts 15°
2026-04-26 17:38 41.90633 2.76491 438 ft 19 kts 15°
2026-04-26 17:38 41.90757 2.76538 452 ft 18 kts 15°
2026-04-26 17:39 41.90874 2.76582 459 ft 17 kts 16°
2026-04-26 17:39 41.90988 2.76625 461 ft 17 kts 15°
2026-04-26 17:39 41.91097 2.76667 463 ft 16 kts 16°
2026-04-26 17:39 41.91203 2.76707 464 ft 15 kts 16°
2026-04-26 17:40 41.91305 2.76746 465 ft 15 kts 15°
2026-04-26 17:40 41.91338 2.76758 466 ft 13 kts 15°
2026-04-26 17:40 41.91429 2.76746 469 ft 0 kts 331°
2026-04-26 17:44 41.91430 2.76745 469 ft 2 kts 331°
2026-04-26 17:45 41.91490 2.76702 472 ft 11 kts 331°
2026-04-26 17:45 41.91527 2.76670 473 ft 9 kts 314°
2026-04-26 17:45 41.91519 2.76599 472 ft 9 kts 215°
2026-04-26 17:45 41.91438 2.76566 477 ft 26 kts 197°
2026-04-26 17:46 41.91006 2.76402 468 ft 99 kts 195°
2026-04-26 17:46 41.90153 2.76082 452 ft 156 kts 196°
2026-04-26 17:46 41.89071 2.75685 1090 ft 157 kts 195°
2026-04-26 17:46 41.87987 2.75308 1798 ft 161 kts 195°
2026-04-26 17:47 41.86884 2.74926 2523 ft 168 kts 196°
2026-04-26 17:47 41.86074 2.74640 2751 ft 190 kts 197°
2026-04-26 17:47 41.84258 2.74026 3308 ft 213 kts 195°
2026-04-26 17:47 41.82770 2.73588 3772 ft 225 kts 185°
2026-04-26 17:48 41.81250 2.74111 4328 ft 233 kts 145°
2026-04-26 17:48 41.80228 2.75755 5078 ft 232 kts 108°
2026-04-26 17:48 41.79968 2.77849 5879 ft 228 kts 92°
2026-04-26 17:48 41.79862 2.79983 6623 ft 230 kts 91°
2026-04-26 17:49 41.80080 2.82095 7199 ft 235 kts 65°
2026-04-26 17:49 41.80840 2.84163 7432 ft 260 kts 61°
2026-04-26 17:49 41.81709 2.86388 7894 ft 275 kts 61°
2026-04-26 17:49 41.82603 2.88684 8627 ft 279 kts 61°
2026-04-26 17:50 41.83497 2.90998 9439 ft 281 kts 61°
2026-04-26 17:50 41.84399 2.93348 10161 ft 286 kts 61°
2026-04-26 17:50 41.85315 2.95745 10530 ft 303 kts 61°
2026-04-26 17:50 41.86311 2.98361 10707 ft 326 kts 62°
2026-04-26 17:51 41.87377 3.01171 10865 ft 348 kts 62°
2026-04-26 17:51 41.88495 3.04129 11242 ft 361 kts 62°
2026-04-26 17:51 41.89638 3.07163 11844 ft 366 kts 62°
2026-04-26 17:51 41.90795 3.10237 12467 ft 371 kts 62°
2026-04-26 17:52 41.91970 3.13359 13135 ft 376 kts 62°
2026-04-26 17:52 41.93157 3.16517 13782 ft 382 kts 62°
2026-04-26 17:52 41.94359 3.19731 14386 ft 387 kts 63°
2026-04-26 17:52 41.95190 3.23191 15008 ft 393 kts 79°
2026-04-26 17:53 41.95596 3.26836 15718 ft 396 kts 81°
2026-04-26 17:53 41.95978 3.30474 16344 ft 400 kts 81°
2026-04-26 17:53 41.96370 3.34198 16957 ft 405 kts 81°
2026-04-26 17:54 41.97189 3.41770 18188 ft 413 kts 81°
2026-04-26 17:54 41.97615 3.45612 18745 ft 417 kts 81°
2026-04-26 17:54 41.98047 3.49484 19292 ft 420 kts 81°
2026-04-26 17:54 41.98483 3.53382 19860 ft 423 kts 80°
2026-04-26 17:55 41.98922 3.57306 20413 ft 426 kts 80°
2026-04-26 17:55 41.99363 3.61261 20940 ft 429 kts 80°
2026-04-26 17:55 41.99807 3.65245 21458 ft 433 kts 80°
2026-04-26 17:55 42.00251 3.69259 21975 ft 436 kts 80°
2026-04-26 17:56 42.00699 3.73310 22470 ft 439 kts 80°
2026-04-26 17:56 42.01597 3.81486 23442 ft 445 kts 80°
2026-04-26 17:57 42.02506 3.89820 24171 ft 454 kts 81°
2026-04-26 17:57 42.02962 3.94031 24585 ft 456 kts 81°
2026-04-26 17:57 42.03419 3.98262 24995 ft 458 kts 81°
2026-04-26 17:57 42.03877 4.02516 25382 ft 461 kts 81°
2026-04-26 17:58 42.05254 4.15391 26439 ft 469 kts 81°
2026-04-26 17:59 42.06181 4.24141 27085 ft 476 kts 81°
2026-04-26 17:59 42.06648 4.28560 27379 ft 479 kts 81°
2026-04-26 17:59 42.07115 4.33012 27714 ft 481 kts 81°
2026-04-26 17:59 42.07736 4.37445 28034 ft 483 kts 73°
2026-04-26 18:00 42.08954 4.41657 28343 ft 483 kts 62°
2026-04-26 18:00 42.10690 4.45527 28666 ft 483 kts 52°
2026-04-26 18:00 42.12879 4.48962 28968 ft 484 kts 45°
2026-04-26 18:00 42.15192 4.52278 29285 ft 486 kts 45°
2026-04-26 18:01 42.17519 4.55578 29711 ft 485 kts 45°
2026-04-26 18:01 42.19833 4.58874 30207 ft 483 kts 45°
2026-04-26 18:01 42.22133 4.62182 30500 ft 484 kts 45°
2026-04-26 18:01 42.24406 4.65481 30790 ft 485 kts 45°
2026-04-26 18:02 42.26697 4.68830 31175 ft 484 kts 45°
2026-04-26 18:02 42.28230 4.71082 31460 ft 482 kts 45°
2026-04-26 18:02 42.31224 4.75491 32001 ft 480 kts 45°
2026-04-26 18:02 42.33484 4.78824 32330 ft 480 kts 45°
2026-04-26 18:03 42.35737 4.82150 32627 ft 480 kts 45°
2026-04-26 18:03 42.37993 4.85482 32977 ft 479 kts 45°
2026-04-26 18:03 42.40245 4.88813 33362 ft 478 kts 45°
2026-04-26 18:03 42.42486 4.92130 33729 ft 477 kts 45°
2026-04-26 18:04 42.44697 4.95404 34054 ft 476 kts 45°
2026-04-26 18:04 42.46935 4.98724 34335 ft 476 kts 45°
2026-04-26 18:04 42.49165 5.02035 34634 ft 475 kts 45°
2026-04-26 18:05 42.53609 5.08646 35150 ft 475 kts 45°
2026-04-26 18:05 42.55838 5.11965 35375 ft 475 kts 45°
2026-04-26 18:05 42.58061 5.15281 35693 ft 473 kts 45°
2026-04-26 18:05 42.60268 5.18579 36033 ft 471 kts 45°
2026-04-26 18:06 42.62438 5.21823 36350 ft 469 kts 45°
2026-04-26 18:06 42.64630 5.25104 36611 ft 468 kts 45°
2026-04-26 18:06 42.66815 5.28378 36861 ft 468 kts 45°
2026-04-26 18:06 42.69003 5.31659 37126 ft 467 kts 45°
2026-04-26 18:07 42.71180 5.34929 37418 ft 465 kts 46°
2026-04-26 18:07 42.73348 5.38189 37652 ft 465 kts 46°
2026-04-26 18:07 42.75518 5.41455 37870 ft 465 kts 46°
2026-04-26 18:07 42.76954 5.43619 38035 ft 464 kts 46°
2026-04-26 18:08 42.79858 5.47998 38108 ft 468 kts 46°
2026-04-26 18:08 42.84206 5.54569 38114 ft 465 kts 46°
2026-04-26 18:09 42.88486 5.61054 38132 ft 461 kts 46°
2026-04-26 18:09 42.92765 5.67550 38125 ft 459 kts 46°
2026-04-26 18:10 42.97021 5.74024 38131 ft 458 kts 46°
2026-04-26 18:10 43.01009 5.80804 38125 ft 461 kts 58°
2026-04-26 18:11 43.03578 5.88864 38143 ft 464 kts 69°
2026-04-26 18:11 43.05676 5.97187 38135 ft 467 kts 70°
2026-04-26 18:12 43.07816 6.05596 38138 ft 469 kts 69°
2026-04-26 18:12 43.10005 6.14041 38137 ft 471 kts 69°
2026-04-26 18:13 43.12211 6.22521 38130 ft 473 kts 69°
2026-04-26 18:13 43.14412 6.31022 38132 ft 474 kts 69°
2026-04-26 18:14 43.16594 6.39486 38132 ft 474 kts 69°
2026-04-26 18:14 43.18782 6.48005 38131 ft 473 kts 70°
2026-04-26 18:15 43.20959 6.56502 38133 ft 472 kts 69°
2026-04-26 18:15 43.23969 6.64414 38150 ft 467 kts 52°
2026-04-26 18:16 43.27848 6.71540 38140 ft 466 kts 51°
2026-04-26 18:16 43.33603 6.82274 38139 ft 464 kts 52°
2026-04-26 18:17 43.37388 6.89462 38132 ft 464 kts 52°
2026-04-26 18:17 43.41166 6.96661 38135 ft 463 kts 52°
2026-04-26 18:18 43.44935 7.03866 38135 ft 464 kts 52°
2026-04-26 18:18 43.48678 7.11039 38134 ft 464 kts 53°
2026-04-26 18:19 43.52447 7.18278 38137 ft 465 kts 53°
2026-04-26 18:19 43.56220 7.25544 38141 ft 466 kts 53°
2026-04-26 18:20 43.59996 7.32832 38150 ft 467 kts 53°
2026-04-26 18:20 43.62523 7.37718 38140 ft 467 kts 53°
2026-04-26 18:21 43.67557 7.47464 38137 ft 468 kts 53°
2026-04-26 18:21 43.71316 7.54762 38149 ft 469 kts 53°
2026-04-26 18:22 43.75097 7.62119 38150 ft 469 kts 53°
2026-04-26 18:22 43.78859 7.69495 38159 ft 468 kts 53°
2026-04-26 18:23 43.82879 7.76572 38141 ft 465 kts 41°
2026-04-26 18:23 43.87897 7.82063 38141 ft 462 kts 34°
2026-04-26 18:24 43.93019 7.87434 38144 ft 461 kts 36°
2026-04-26 18:24 43.97912 7.93192 38148 ft 462 kts 41°
2026-04-26 18:25 44.02498 7.99462 38135 ft 462 kts 43°
2026-04-26 18:25 44.07057 8.05748 38130 ft 461 kts 43°
2026-04-26 18:26 44.11650 8.11998 38134 ft 461 kts 42°
2026-04-26 18:26 44.16246 8.18222 38138 ft 461 kts 42°
2026-04-26 18:27 44.20847 8.24463 38132 ft 461 kts 42°
2026-04-26 18:27 44.25414 8.30675 38138 ft 461 kts 42°
2026-04-26 18:28 44.30000 8.36931 38149 ft 461 kts 42°
2026-04-26 18:28 44.34593 8.43209 38149 ft 462 kts 42°
2026-04-26 18:29 44.39178 8.49490 38139 ft 462 kts 42°
2026-04-26 18:29 44.43642 8.55965 38135 ft 463 kts 45°
2026-04-26 18:30 44.47989 8.62617 38130 ft 463 kts 45°
2026-04-26 18:30 44.52309 8.69225 38127 ft 463 kts 45°
2026-04-26 18:31 44.56673 8.75856 38128 ft 462 kts 45°
2026-04-26 18:31 44.61046 8.82491 38131 ft 462 kts 45°
2026-04-26 18:32 44.65409 8.89125 38140 ft 462 kts 45°
2026-04-26 18:32 44.69772 8.95776 38127 ft 463 kts 45°
2026-04-26 18:33 44.74099 9.02389 38107 ft 462 kts 45°
2026-04-26 18:33 44.78448 9.09052 38123 ft 462 kts 45°
2026-04-26 18:34 44.82791 9.15722 38110 ft 462 kts 45°
2026-04-26 18:34 44.86429 9.21323 38088 ft 462 kts 45°
2026-04-26 18:35 44.90765 9.28012 38089 ft 462 kts 45°
2026-04-26 18:35 44.95073 9.34673 38084 ft 461 kts 45°
2026-04-26 18:36 44.99399 9.41378 38080 ft 461 kts 45°
2026-04-26 18:36 45.03728 9.48105 38072 ft 462 kts 45°
2026-04-26 18:37 45.08051 9.54839 38066 ft 462 kts 45°
2026-04-26 18:37 45.12347 9.61548 38062 ft 463 kts 45°
2026-04-26 18:38 45.16665 9.68306 38059 ft 463 kts 45°
2026-04-26 18:38 45.20968 9.75115 38059 ft 464 kts 47°
2026-04-26 18:39 45.25112 9.82146 38058 ft 464 kts 48°
2026-04-26 18:39 45.29193 9.89192 38063 ft 464 kts 48°
2026-04-26 18:40 45.33317 9.96275 38071 ft 464 kts 47°
2026-04-26 18:40 45.37446 10.03344 38074 ft 465 kts 47°
2026-04-26 18:41 45.41572 10.10417 38077 ft 465 kts 48°
2026-04-26 18:41 45.45701 10.17516 38079 ft 465 kts 48°
2026-04-26 18:42 45.49794 10.24571 38077 ft 465 kts 48°
2026-04-26 18:42 45.53905 10.31677 38075 ft 465 kts 48°
2026-04-26 18:43 45.58016 10.38802 38085 ft 465 kts 48°
2026-04-26 18:43 45.62118 10.45928 38102 ft 465 kts 48°
2026-04-26 18:44 45.66199 10.53092 38114 ft 465 kts 50°
2026-04-26 18:44 45.70094 10.60495 38150 ft 465 kts 51°
2026-04-26 18:45 45.73930 10.67966 38162 ft 466 kts 51°
2026-04-26 18:45 45.77792 10.75450 38164 ft 467 kts 51°
2026-04-26 18:46 45.81670 10.82928 38191 ft 467 kts 51°
2026-04-26 18:46 45.85551 10.90417 38209 ft 468 kts 51°
2026-04-26 18:47 45.89432 10.97924 38202 ft 469 kts 51°
2026-04-26 18:47 45.93287 11.05403 38197 ft 468 kts 51°
2026-04-26 18:48 45.97155 11.12929 38222 ft 467 kts 51°
2026-04-26 18:48 46.01019 11.20466 38200 ft 468 kts 51°
2026-04-26 18:49 46.04880 11.28018 38205 ft 468 kts 51°
2026-04-26 18:49 46.08735 11.35580 38168 ft 468 kts 51°
2026-04-26 18:50 46.12585 11.43150 38167 ft 467 kts 51°
2026-04-26 18:50 46.16401 11.50675 38162 ft 467 kts 51°
2026-04-26 18:51 46.20238 11.58261 38155 ft 467 kts 51°
2026-04-26 18:51 46.24071 11.65861 38133 ft 468 kts 51°
2026-04-26 18:52 46.27897 11.73466 38131 ft 468 kts 51°
2026-04-26 18:52 46.31696 11.81040 38119 ft 468 kts 51°
2026-04-26 18:53 46.35513 11.88668 38135 ft 468 kts 52°
2026-04-26 18:53 46.39318 11.96294 38125 ft 467 kts 52°
2026-04-26 18:54 46.43118 12.03931 38131 ft 466 kts 52°
2026-04-26 18:54 46.46902 12.11557 38124 ft 466 kts 52°
2026-04-26 18:55 46.50680 12.19191 38170 ft 464 kts 52°
2026-04-26 18:55 46.54446 12.26821 38178 ft 465 kts 52°
2026-04-26 18:56 46.58184 12.34418 38184 ft 466 kts 52°
2026-04-26 18:56 46.61978 12.42146 38308 ft 469 kts 52°
2026-04-26 18:57 46.63870 12.46011 38588 ft 468 kts 52°
2026-04-26 18:57 46.65117 12.48561 38797 ft 467 kts 52°
2026-04-26 18:57 46.67625 12.53694 39118 ft 464 kts 52°
2026-04-26 18:57 46.69500 12.57536 39144 ft 467 kts 52°
2026-04-26 18:58 46.73327 12.65216 39136 ft 467 kts 50°
2026-04-26 18:58 46.77254 12.72731 39136 ft 464 kts 50°
2026-04-26 18:59 46.81162 12.80197 39128 ft 462 kts 50°
2026-04-26 18:59 46.85016 12.87630 39148 ft 461 kts 50°
2026-04-26 19:00 46.88874 12.95122 39146 ft 461 kts 50°
2026-04-26 19:00 46.92721 13.02621 39156 ft 461 kts 51°
2026-04-26 19:01 46.96573 13.10151 39160 ft 462 kts 51°
2026-04-26 19:01 47.00432 13.17713 39156 ft 464 kts 51°
2026-04-26 19:02 47.04302 13.25315 39166 ft 466 kts 51°
2026-04-26 19:02 47.07523 13.31659 39158 ft 466 kts 51°
2026-04-26 19:03 47.12033 13.40568 39168 ft 468 kts 51°
2026-04-26 19:03 47.15914 13.48258 39161 ft 469 kts 51°
2026-04-26 19:04 47.19792 13.55962 39166 ft 469 kts 51°
2026-04-26 19:04 47.23678 13.63705 39167 ft 470 kts 51°
2026-04-26 19:05 47.29499 13.75343 39165 ft 470 kts 51°
2026-04-26 19:06 47.33379 13.83127 39158 ft 471 kts 51°
2026-04-26 19:06 47.37244 13.90905 39176 ft 469 kts 51°
2026-04-26 19:07 47.41064 13.98612 39182 ft 468 kts 51°
2026-04-26 19:07 47.44904 14.06383 39170 ft 467 kts 51°
2026-04-26 19:08 47.48729 14.14144 39172 ft 466 kts 51°
2026-04-26 19:08 47.52521 14.21860 39176 ft 466 kts 51°
2026-04-26 19:09 47.56320 14.29612 39188 ft 465 kts 51°
2026-04-26 19:09 47.60117 14.37380 39185 ft 465 kts 52°
2026-04-26 19:10 47.63902 14.45149 39185 ft 465 kts 52°
2026-04-26 19:10 47.67665 14.52893 39186 ft 465 kts 52°
2026-04-26 19:11 47.71450 14.60704 39199 ft 466 kts 52°
2026-04-26 19:11 47.75236 14.68538 39203 ft 468 kts 52°
2026-04-26 19:12 47.79030 14.76415 39205 ft 469 kts 52°
2026-04-26 19:12 47.82827 14.84319 39204 ft 469 kts 52°
2026-04-26 19:13 47.86625 14.92248 39218 ft 470 kts 52°
2026-04-26 19:13 47.90414 15.00183 39219 ft 471 kts 52°
2026-04-26 19:14 47.94210 15.08153 39238 ft 472 kts 52°
2026-04-26 19:14 47.98017 15.16169 39231 ft 473 kts 52°
2026-04-26 19:15 48.01791 15.24139 39222 ft 473 kts 52°
2026-04-26 19:15 48.05589 15.32180 39251 ft 473 kts 52°
2026-04-26 19:16 48.09381 15.40236 39247 ft 473 kts 52°
2026-04-26 19:16 48.13168 15.48306 39243 ft 473 kts 52°
2026-04-26 19:17 48.16937 15.56363 39251 ft 472 kts 52°
2026-04-26 19:17 48.20692 15.64414 39244 ft 471 kts 52°
2026-04-26 19:18 48.24440 15.72474 39258 ft 470 kts 52°
2026-04-26 19:18 48.28156 15.80487 39248 ft 470 kts 52°
2026-04-26 19:19 48.31883 15.88549 39244 ft 469 kts 52°
2026-04-26 19:19 48.35603 15.96618 39245 ft 469 kts 52°
2026-04-26 19:20 48.39314 16.04694 39253 ft 469 kts 52°
2026-04-26 19:20 48.43024 16.12790 39248 ft 469 kts 52°
2026-04-26 19:21 48.46728 16.20898 39246 ft 470 kts 52°
2026-04-26 19:21 48.49806 16.27654 39250 ft 470 kts 52°
2026-04-26 19:22 48.54111 16.37133 39244 ft 470 kts 52°
2026-04-26 19:22 48.55931 16.41156 39223 ft 456 kts 52°
2026-04-26 19:22 48.57693 16.45059 39237 ft 442 kts 52°
2026-04-26 19:22 48.59392 16.48829 39220 ft 428 kts 52°
2026-04-26 19:23 48.60498 16.51280 39221 ft 423 kts 51°
2026-04-26 19:23 48.62146 16.54935 38950 ft 419 kts 51°
2026-04-26 19:23 48.63796 16.58589 38189 ft 424 kts 51°
2026-04-26 19:23 48.66051 16.63588 36685 ft 445 kts 51°
2026-04-26 19:24 48.67242 16.66233 35908 ft 455 kts 51°
2026-04-26 19:24 48.69023 16.70206 34900 ft 467 kts 51°
2026-04-26 19:24 48.72714 16.78466 33479 ft 469 kts 51°
2026-04-26 19:25 48.74616 16.82444 33333 ft 464 kts 48°
2026-04-26 19:25 48.75916 16.84998 33277 ft 459 kts 47°
2026-04-26 19:25 48.78519 16.89960 33228 ft 439 kts 46°
2026-04-26 19:25 48.80405 16.93522 33227 ft 425 kts 46°
2026-04-26 19:26 48.82228 16.97010 32833 ft 421 kts 46°
2026-04-26 19:26 48.84058 17.00535 31885 ft 432 kts 46°
2026-04-26 19:26 48.85954 17.04192 30975 ft 441 kts 47°
2026-04-26 19:26 48.87837 17.07849 30796 ft 443 kts 47°
2026-04-26 19:27 48.89757 17.11573 30534 ft 453 kts 47°
2026-04-26 19:27 48.91688 17.15323 30242 ft 459 kts 47°
2026-04-26 19:27 48.93649 17.19140 29866 ft 456 kts 47°
2026-04-26 19:27 48.95595 17.22938 29535 ft 452 kts 47°
2026-04-26 19:28 48.97518 17.26695 29222 ft 448 kts 47°
2026-04-26 19:28 48.99421 17.30415 28932 ft 444 kts 47°
2026-04-26 19:28 49.01310 17.34110 28619 ft 441 kts 47°
2026-04-26 19:28 49.03190 17.37788 28404 ft 437 kts 47°
2026-04-26 19:29 49.06953 17.45155 27815 ft 447 kts 47°
2026-04-26 19:29 49.08841 17.48863 27495 ft 439 kts 47°
2026-04-26 19:29 49.10696 17.52519 27164 ft 431 kts 47°
2026-04-26 19:30 49.12526 17.56130 26863 ft 430 kts 47°
2026-04-26 19:30 49.14356 17.59741 26572 ft 430 kts 47°
2026-04-26 19:30 49.16161 17.63304 26287 ft 429 kts 47°
2026-04-26 19:30 49.17394 17.65741 26090 ft 429 kts 47°
2026-04-26 19:31 49.19806 17.70515 25695 ft 428 kts 47°
2026-04-26 19:31 49.21623 17.74120 25413 ft 426 kts 47°
2026-04-26 19:31 49.23428 17.77705 25134 ft 425 kts 47°
2026-04-26 19:31 49.25226 17.81282 24839 ft 423 kts 47°
2026-04-26 19:32 49.27014 17.84844 24580 ft 421 kts 47°
2026-04-26 19:32 49.28797 17.88400 24271 ft 419 kts 47°
2026-04-26 19:32 49.30566 17.91934 23988 ft 417 kts 47°
2026-04-26 19:32 49.32324 17.95451 23680 ft 414 kts 47°
2026-04-26 19:33 49.34074 17.98955 23358 ft 412 kts 47°
2026-04-26 19:33 49.35784 18.02385 23081 ft 409 kts 47°
2026-04-26 19:33 49.37504 18.05838 22785 ft 406 kts 47°
2026-04-26 19:33 49.39210 18.09269 22506 ft 403 kts 47°
2026-04-26 19:34 49.40905 18.12680 22238 ft 400 kts 47°
2026-04-26 19:34 49.42590 18.16074 21979 ft 398 kts 47°
2026-04-26 19:34 49.44263 18.19450 21714 ft 396 kts 46°
2026-04-26 19:34 49.45925 18.22808 21431 ft 393 kts 46°
2026-04-26 19:35 49.47580 18.26155 21163 ft 391 kts 46°
2026-04-26 19:35 49.49222 18.29480 20909 ft 389 kts 46°
2026-04-26 19:35 49.50836 18.32754 20645 ft 387 kts 46°
2026-04-26 19:35 49.52462 18.36053 20374 ft 386 kts 46°
2026-04-26 19:36 49.54083 18.39349 20106 ft 384 kts 47°
2026-04-26 19:36 49.55148 18.41517 19938 ft 382 kts 47°
2026-04-26 19:36 49.57283 18.45869 19596 ft 379 kts 47°
2026-04-26 19:36 49.58872 18.49111 19324 ft 377 kts 47°
2026-04-26 19:37 49.60423 18.52282 19080 ft 374 kts 47°
2026-04-26 19:37 49.61986 18.55478 18828 ft 372 kts 47°
2026-04-26 19:37 49.63543 18.58665 18582 ft 370 kts 47°
2026-04-26 19:37 49.65090 18.61834 18299 ft 368 kts 47°
2026-04-26 19:38 49.66630 18.64995 18022 ft 367 kts 47°
2026-04-26 19:38 49.68160 18.68122 17786 ft 363 kts 45°
2026-04-26 19:38 49.70004 18.70647 17517 ft 347 kts 24°
2026-04-26 19:38 49.72127 18.72163 17261 ft 339 kts 20°
2026-04-26 19:39 49.74048 18.74360 16814 ft 354 kts 44°
2026-04-26 19:39 49.75294 18.77708 16347 ft 366 kts 65°
2026-04-26 19:39 49.76084 18.81445 16028 ft 363 kts 64°
2026-04-26 19:39 49.77018 18.85046 15754 ft 358 kts 61°
2026-04-26 19:40 49.78002 18.88559 15516 ft 355 kts 60°
2026-04-26 19:40 49.79005 18.92067 15268 ft 357 kts 59°
2026-04-26 19:40 49.80012 18.95597 15011 ft 360 kts 59°
2026-04-26 19:40 49.81013 18.99140 14745 ft 358 kts 60°
2026-04-26 19:41 49.81999 19.02663 14488 ft 356 kts 60°
2026-04-26 19:41 49.82975 19.06169 14219 ft 354 kts 60°
2026-04-26 19:41 49.83934 19.09622 13980 ft 352 kts 60°
2026-04-26 19:41 49.84587 19.11976 13790 ft 351 kts 60°
2026-04-26 19:42 49.85856 19.16562 13444 ft 348 kts 60°
2026-04-26 19:42 49.86809 19.20008 13193 ft 347 kts 60°
2026-04-26 19:42 49.87756 19.23437 12946 ft 345 kts 60°
2026-04-26 19:42 49.88697 19.26854 12703 ft 344 kts 60°
2026-04-26 19:43 49.89638 19.30251 12458 ft 342 kts 60°
2026-04-26 19:43 49.90586 19.33631 12203 ft 341 kts 60°
2026-04-26 19:43 49.91542 19.37031 11772 ft 344 kts 60°
2026-04-26 19:43 49.92489 19.40409 11490 ft 338 kts 61°
2026-04-26 19:44 49.93412 19.43722 11266 ft 330 kts 60°
2026-04-26 19:44 49.94312 19.46955 11026 ft 323 kts 60°
2026-04-26 19:44 49.95107 19.50143 10788 ft 321 kts 69°
2026-04-26 19:44 49.95584 19.53555 10562 ft 317 kts 74°
2026-04-26 19:45 49.95974 19.56851 10334 ft 311 kts 74°
2026-04-26 19:45 49.96380 19.60119 10109 ft 305 kts 73°
2026-04-26 19:45 49.96794 19.63321 9872 ft 299 kts 73°
2026-04-26 19:45 49.97214 19.66463 9644 ft 294 kts 73°
2026-04-26 19:46 49.97630 19.69543 9428 ft 290 kts 73°
2026-04-26 19:46 49.98042 19.72591 9227 ft 287 kts 73°
2026-04-26 19:46 49.98454 19.75631 9024 ft 286 kts 73°
2026-04-26 19:46 49.98864 19.78646 8828 ft 284 kts 73°
2026-04-26 19:47 49.99270 19.81643 8627 ft 283 kts 73°
2026-04-26 19:47 49.99538 19.83625 8497 ft 282 kts 73°
2026-04-26 19:47 50.00077 19.87609 8241 ft 281 kts 73°
2026-04-26 19:47 50.00480 19.90583 8033 ft 280 kts 73°
2026-04-26 19:48 50.00875 19.93503 7846 ft 280 kts 74°
2026-04-26 19:48 50.01274 19.96458 7645 ft 279 kts 74°
2026-04-26 19:48 50.01672 19.99413 7452 ft 278 kts 74°
2026-04-26 19:48 50.02072 20.02360 7253 ft 278 kts 74°
2026-04-26 19:49 50.02470 20.05300 7059 ft 278 kts 74°
2026-04-26 19:49 50.02867 20.08236 6862 ft 277 kts 75°
2026-04-26 19:49 50.03261 20.11158 6663 ft 276 kts 75°
2026-04-26 19:49 50.03652 20.14057 6439 ft 272 kts 75°
2026-04-26 19:50 50.04038 20.16916 6230 ft 267 kts 74°
2026-04-26 19:50 50.04440 20.19700 6051 ft 259 kts 68°
2026-04-26 19:50 50.05364 20.21944 5996 ft 239 kts 36°
2026-04-26 19:50 50.06755 20.23133 5991 ft 223 kts 14°
2026-04-26 19:51 50.08261 20.23491 5984 ft 216 kts 355°
2026-04-26 19:51 50.09698 20.23124 5988 ft 204 kts 347°
2026-04-26 19:51 50.11056 20.22679 5976 ft 196 kts 347°
2026-04-26 19:51 50.12364 20.22182 5965 ft 188 kts 336°
2026-04-26 19:52 50.13225 20.20841 5926 ft 177 kts 289°
2026-04-26 19:52 50.13240 20.18995 5898 ft 169 kts 270°
2026-04-26 19:52 50.13114 20.17191 5705 ft 168 kts 267°
2026-04-26 19:52 50.12921 20.15369 5468 ft 171 kts 265°
2026-04-26 19:53 50.12689 20.13557 5222 ft 169 kts 263°
2026-04-26 19:53 50.12446 20.11779 5008 ft 166 kts 263°
2026-04-26 19:53 50.12202 20.10037 4758 ft 163 kts 263°
2026-04-26 19:53 50.11958 20.08311 4538 ft 163 kts 263°
2026-04-26 19:54 50.11713 20.06570 4315 ft 166 kts 263°
2026-04-26 19:54 50.11467 20.04826 4075 ft 167 kts 262°
2026-04-26 19:54 50.11215 20.03053 3840 ft 167 kts 263°
2026-04-26 19:54 50.10965 20.01286 3612 ft 166 kts 263°
2026-04-26 19:55 50.10718 19.99531 3381 ft 165 kts 262°
2026-04-26 19:55 50.10472 19.97787 3153 ft 165 kts 262°
2026-04-26 19:55 50.10228 19.96050 2933 ft 163 kts 262°
2026-04-26 19:55 50.09984 19.94315 2723 ft 165 kts 262°
2026-04-26 19:56 50.09739 19.92563 2473 ft 165 kts 262°
2026-04-26 19:56 50.09506 19.90914 2260 ft 152 kts 262°
2026-04-26 19:56 50.09284 19.89321 2042 ft 149 kts 261°
2026-04-26 19:56 50.09063 19.87752 1830 ft 149 kts 261°
2026-04-26 19:57 50.08846 19.86192 1629 ft 146 kts 259°
2026-04-26 19:57 50.08630 19.84653 1427 ft 145 kts 259°
2026-04-26 19:57 50.08417 19.83128 1252 ft 144 kts 259°
2026-04-26 19:57 50.08205 19.81597 1044 ft 144 kts 259°
2026-04-26 19:58 50.07993 19.80082 849 ft 143 kts 259°
2026-04-26 19:58 50.07801 19.78653 800 ft 115 kts 255°
2026-04-26 19:58 50.07671 19.77755 797 ft 55 kts 257°
2026-04-26 19:58 50.07620 19.77383 799 ft 30 kts 257°
2026-04-26 19:59 50.07578 19.77074 802 ft 28 kts 258°
2026-04-26 19:59 50.07545 19.76877 801 ft 13 kts 240°
2026-04-26 19:59 50.07466 19.76852 800 ft 13 kts 165°
2026-04-26 19:59 50.07378 19.76878 799 ft 13 kts 169°
2026-04-26 20:00 50.07309 19.76938 799 ft 12 kts 111°
2026-04-26 20:00 50.07321 19.77060 799 ft 11 kts 77°
2026-04-26 20:00 50.07339 19.77189 799 ft 14 kts 78°
2026-04-26 20:00 50.07365 19.77376 799 ft 21 kts 78°
2026-04-26 20:01 50.07399 19.77619 799 ft 24 kts 78°
2026-04-26 20:01 50.07434 19.77865 799 ft 23 kts 77°
2026-04-26 20:01 50.07466 19.78103 799 ft 22 kts 78°
2026-04-26 20:01 50.07498 19.78334 799 ft 21 kts 78°
2026-04-26 20:02 50.07530 19.78558 799 ft 21 kts 77°
2026-04-26 20:02 50.07561 19.78775 799 ft 20 kts 78°
2026-04-26 20:02 50.07589 19.78987 799 ft 20 kts 78°
2026-04-26 20:02 50.07608 19.79122 799 ft 19 kts 78°
2026-04-26 20:03 50.07645 19.79386 799 ft 18 kts 78°
2026-04-26 20:03 50.07671 19.79574 799 ft 17 kts 77°
2026-04-26 20:03 50.07696 19.79753 799 ft 16 kts 78°
2026-04-26 20:03 50.07674 19.79876 799 ft 13 kts 160°
2026-04-26 20:04 50.07588 19.79907 799 ft 12 kts 167°
2026-04-26 20:04 50.07512 19.79951 799 ft 12 kts 117°
2026-04-26 20:04 50.07522 19.80063 799 ft 10 kts 79°
2026-04-26 20:04 50.07536 19.80170 799 ft 10 kts 78°
2026-04-26 20:05 50.07545 19.80238 799 ft 2 kts 80°
2026-04-26 20:05 50.07536 19.80260 799 ft 3 kts 150°
2026-04-26 20:05 50.07517 19.80267 799 ft 3 kts 167°
2026-04-26 20:05 50.07502 19.80272 799 ft 1 kts 168°
2026-04-26 20:06 50.07501 19.80273 799 ft 0 kts 167°